Powrót do katalogu

QIANFAN-77

AktywnyŁącznośćPO
NORAD 63163·PAYLOAD·🇨🇳 China

Wystrzelony Mar 11, 2025 z Wenchang Space Launch Site

Loading…

Następne Przeloty (najbliższe 24 godziny)

TLE

ŚwieżeSource: Space-Track

Epoka: Sep 14, 2026, 12:52 UTC

1 63163U 25046E   26257.53676732  .00000095  00000-0  59308-4 0  9990
2 63163  88.9656 287.2295 0012743 304.4077  55.5895 13.96246157 86937

Śledź QIANFAN-77 w czasie rzeczywistym z AllMySat

Download on the App Store